User: anonymous   Login
Location: Fishcreek Rd Observing Site
(41.1865°N, 81.4271°W)
Time: 03:05:07
(UTC-04:00)
Language:

Iridium 45 - Orbit

View from above orbital plane
View from above orbital plane
View from above satellite
View from above satellite

Ground track
Ground track

The orbit data is extracted from the following two-line orbital elements,

1 25104U 97082A   18109.62479798 +.00000106 +00000-0 +30797-4 0  9996
2 25104 086.3975 159.1680 0002705 077.8478 282.3020 14.34220486064031
Epoch (UTC): 19 April 2018 14:59:42
Eccentricity: 0.0002705
inclination: 86.3975°
perigee height: 776 km
apogee height: 779 km
right ascension of ascending node: 159.1680°
argument of perigee: 77.8478°
revolutions per day: 14.34220486
mean anomaly at epoch: 282.3020°
orbit number at epoch: 6403

The dashed part of the orbit path shows where the satellite is in the earth's shadow,  

DLR